| time (UTC) | temp F | wind direction | speed MPH | gust MPH | rain 1hr in | rain 24hr in | rain mn in | humidity % | barometer mb |
| 20260507171526 | 85 | 319 | 0.0 | 3.0 | 0.00 | 0.00 | 0.00 | 17 | 1013.0 |
| 20260507170024 | 85 | 105 | 2.0 | 5.0 | 0.00 | 0.00 | 0.00 | 17 | 1013.1 |
| 20260507164522 | 82 | 69 | 1.0 | 2.0 | 0.00 | 0.00 | 0.00 | 19 | 1013.2 |
| 20260507163022 | 81 | 206 | 0.0 | 3.0 | 0.00 | 0.00 | 0.00 | 20 | 1013.3 |
| 20260507161512 | 80 | 82 | 0.0 | 3.0 | 0.00 | 0.00 | 0.00 | 21 | 1013.5 |
| 20260507160022 | 79 | 163 | 1.0 | 3.0 | 0.00 | 0.00 | 0.00 | 21 | 1013.6 |
| 20260507154519 | 77 | 136 | 1.0 | 3.0 | 0.00 | 0.00 | 0.00 | 22 | 1013.7 |
| 20260507151514 | 73 | 188 | 0.0 | 3.0 | 0.00 | 0.00 | 0.00 | 26 | 1013.6 |
| 20260507150012 | 71 | 233 | 0.0 | 2.0 | 0.00 | 0.00 | 0.00 | 27 | 1013.4 |
| 20260507144511 | 69 | 237 | 0.0 | 2.0 | 0.00 | 0.00 | 0.00 | 28 | 1013.4 |
| 20260507143008 | 67 | 182 | 0.0 | 2.0 | 0.00 | 0.00 | 0.00 | 28 | 1013.5 |
| 20260507141504 | 67 | 257 | 1.0 | 3.0 | 0.00 | 0.00 | 0.00 | 27 | 1013.6 |
| 20260507140024 | 66 | 261 | 0.0 | 2.0 | 0.00 | 0.00 | 0.00 | 28 | 1013.4 |
| 20260507134518 | 65 | 261 | 1.0 | 2.0 | 0.00 | 0.00 | 0.00 | 30 | 1013.1 |
| 20260507133018 | 64 | 260 | 0.0 | 2.0 | 0.00 | 0.00 | 0.00 | 32 | 1013.2 |
| 20260507131514 | 63 | 174 | 0.0 | 3.0 | 0.00 | 0.00 | 0.00 | 30 | 1013.1 |
| 20260507130014 | 62 | 125 | 0.0 | 6.0 | 0.00 | 0.00 | 0.00 | 30 | 1013.0 |
| 20260507124511 | 62 | 179 | 1.0 | 2.0 | 0.00 | 0.00 | 0.00 | 34 | 1012.9 |
| 20260507123009 | 63 | 197 | 1.0 | 3.0 | 0.00 | 0.00 | 0.00 | 34 | 1012.9 |
| 20260507121510 | 66 | 91 | 1.0 | 3.0 | 0.00 | 0.00 | 0.00 | 31 | 1013.0 |
| 20260507120023 | 67 | 325 | 1.0 | 2.0 | 0.00 | 0.00 | 0.00 | 30 | 1013.0 |
| 20260507114521 | 67 | 329 | 1.0 | 3.0 | 0.00 | 0.00 | 0.00 | 29 | 1013.1 |
| 20260507113023 | 66 | 300 | 0.0 | 3.0 | 0.00 | 0.00 | 0.00 | 29 | 1013.0 |
| 20260507111533 | 66 | 304 | 1.0 | 2.0 | 0.00 | 0.00 | 0.00 | 30 | 1013.1 |
| 20260507110018 | 64 | 333 | 1.0 | 3.0 | 0.00 | 0.00 | 0.00 | 31 | 1013.2 |
| 20260507104519 | 64 | 327 | 1.0 | 3.0 | 0.00 | 0.00 | 0.00 | 30 | 1013.2 |
| 20260507103013 | 64 | 129 | 0.0 | 2.0 | 0.00 | 0.00 | 0.00 | 27 | 1013.1 |
| 20260507101510 | 64 | 129 | 1.0 | 2.0 | 0.00 | 0.00 | 0.00 | 27 | 1013.1 |
| 20260507100034 | 63 | 157 | 0.0 | 2.0 | 0.00 | 0.00 | 0.00 | 27 | 1013.3 |
| 20260507094538 | 64 | 157 | 0.0 | 2.0 | 0.00 | 0.00 | 0.00 | 27 | 1013.4 |
| 20260507071526 | 69 | 155 | 0.0 | 2.0 | 0.00 | 0.00 | 0.00 | 25 | 1013.9 |
| 20260507070022 | 69 | 138 | 0.0 | 2.0 | 0.00 | 0.00 | 0.00 | 26 | 1013.9 |
| 20260507064523 | 69 | 135 | 0.0 | 0.0 | 0.00 | 0.00 | 0.00 | 25 | 1013.8 |
| 20260507061518 | 69 | 135 | 0.0 | 2.0 | 0.00 | 0.00 | 0.00 | 25 | 1013.8 |
| 20260507060012 | 70 | 212 | 0.0 | 2.0 | 0.00 | 0.00 | 0.00 | 25 | 1013.8 |
| 20260507054536 | 71 | 212 | 0.0 | 2.0 | 0.00 | 0.00 | 0.00 | 25 | 1014.0 |
| 20260507053027 | 73 | 245 | 0.0 | 2.0 | 0.00 | 0.00 | 0.00 | 25 | 1013.8 |
| 20260507051524 | 73 | 246 | 0.0 | 2.0 | 0.00 | 0.00 | 0.00 | 25 | 1013.8 |
| 20260507050024 | 74 | 223 | 0.0 | 2.0 | 0.00 | 0.00 | 0.00 | 25 | 1013.7 |
| 20260507044543 | 75 | 218 | 0.0 | 2.0 | 0.00 | 0.00 | 0.00 | 24 | 1013.5 |
| 20260507043022 | 75 | 229 | 0.0 | 3.0 | 0.00 | 0.00 | 0.00 | 24 | 1013.4 |
| 20260507040018 | 76 | 230 | 0.0 | 2.0 | 0.00 | 0.00 | 0.00 | 24 | 1013.1 |
| 20260507034533 | 76 | 240 | 0.0 | 2.0 | 0.00 | 0.00 | 0.00 | 23 | 1013.0 |
| 20260507033028 | 78 | 184 | 1.0 | 3.0 | 0.00 | 0.00 | 0.00 | 22 | 1012.9 |
| 20260507031527 | 79 | 248 | 1.0 | 3.0 | 0.00 | 0.00 | 0.00 | 20 | 1012.6 |
| 20260507030029 | 80 | 235 | 0.0 | 2.0 | 0.00 | 0.00 | 0.00 | 20 | 1012.3 |
| 20260507023025 | 81 | 248 | 0.0 | 2.0 | 0.00 | 0.00 | 0.00 | 19 | 1012.0 |
| 20260507021522 | 82 | 247 | 1.0 | 3.0 | 0.00 | 0.00 | 0.00 | 19 | 1012.0 |
| 20260507014525 | 83 | 256 | 1.0 | 3.0 | 0.00 | 0.00 | 0.00 | 19 | 1012.0 |
| 20260507013031 | 84 | 285 | 1.0 | 6.0 | 0.00 | 0.00 | 0.00 | 19 | 1012.0 |
| 20260507011528 | 84 | 309 | 1.0 | 4.0 | 0.00 | 0.00 | 0.00 | 19 | 1012.0 |
| 20260507010029 | 84 | 188 | 1.0 | 3.0 | 0.00 | 0.00 | 0.00 | 18 | 1012.0 |
| 20260507004531 | 84 | 305 | 2.0 | 4.0 | 0.00 | 0.00 | 0.00 | 18 | 1011.9 |
| 20260507001512 | 85 | 188 | 1.0 | 4.0 | 0.00 | 0.00 | 0.00 | 18 | 1011.9 |
| 20260507000018 | 85 | 308 | 3.0 | 6.0 | 0.00 | 0.00 | 0.00 | 18 | 1012.0 |
| 20260506233023 | 84 | 199 | 0.0 | 3.0 | 0.00 | 0.00 | 0.00 | 18 | 1012.1 |
| 20260506231518 | 85 | 181 | 4.0 | 8.0 | 0.00 | 0.00 | 0.00 | 18 | 1012.2 |
| 20260506230016 | 85 | 273 | 1.0 | 7.0 | 0.00 | 0.00 | 0.00 | 18 | 1012.3 |
| 20260506224512 | 86 | 117 | 2.0 | 5.0 | 0.00 | 0.00 | 0.00 | 18 | 1012.4 |
| 20260506223009 | 85 | 297 | 3.0 | 5.0 | 0.00 | 0.00 | 0.00 | 18 | 1012.7 |
| 20260506220020 | 84 | 262 | 2.0 | 7.0 | 0.00 | 0.00 | 0.00 | 19 | 1013.0 |
| 20260506214520 | 85 | 305 | 3.0 | 8.0 | 0.00 | 0.00 | 0.00 | 19 | 1013.2 |
| 20260506211519 | 84 | 2 | 4.0 | 8.0 | 0.00 | 0.00 | 0.00 | 18 | 1013.8 |
| 20260506210021 | 84 | 340 | 5.0 | 8.0 | 0.00 | 0.00 | 0.00 | 19 | 1014.0 |
| 20260506204517 | 83 | 198 | 3.0 | 8.0 | 0.00 | 0.00 | 0.00 | 18 | 1014.3 |
| 20260506203016 | 81 | 21 | 0.0 | 6.0 | 0.00 | 0.00 | 0.00 | 19 | 1014.4 |
| 20260506201510 | 81 | 10 | 2.0 | 6.0 | 0.00 | 0.00 | 0.00 | 20 | 1014.5 |
| 20260506200022 | 82 | 68 | 5.0 | 10.0 | 0.00 | 0.00 | 0.00 | 20 | 1014.7 |
| 20260506194522 | 81 | 259 | 3.0 | 8.0 | 0.00 | 0.00 | 0.00 | 20 | 1014.9 |
| 20260506193024 | 81 | 152 | 3.0 | 9.0 | 0.00 | 0.00 | 0.00 | 21 | 1015.1 |
| 20260506191521 | 81 | 196 | 3.0 | 6.0 | 0.00 | 0.00 | 0.00 | 21 | 1015.2 |
| 20260506190021 | 80 | 293 | 4.0 | 7.0 | 0.00 | 0.00 | 0.00 | 23 | 1015.4 |
| 20260506184528 | 79 | 273 | 2.0 | 5.0 | 0.00 | 0.00 | 0.00 | 24 | 1015.5 |
| 20260506183018 | 79 | 243 | 2.0 | 6.0 | 0.00 | 0.00 | 0.00 | 23 | 1015.7 |
| 20260506180023 | 77 | 143 | 1.0 | 7.0 | 0.00 | 0.00 | 0.00 | 25 | 1015.9 |
| 20260506174523 | 78 | 129 | 2.0 | 5.0 | 0.00 | 0.00 | 0.00 | 25 | 1015.9 |
| 20260506173027 | 76 | 274 | 3.0 | 6.0 | 0.00 | 0.00 | 0.00 | 26 | 1015.9 |